Temp
39 38 38 39 39 39 38 37 33 29 32 38 39 46 47 47 48 48 49 50 50 50 52 52 56 59 60 61 61 62 63 64 64 64 64 64 65 65
38 37 37 38 38 38 38 38 37 33 30 38 40 42 44 47 48 47 47 49 49 50 51 52 52 56 58 59 59 59 60 61 62 62 62 63 64 64
36 36 35 37 36 36 37 37 36 36 31 35 38 40 40 41 43 44 46 45 47 49 50 50 49 51 55 55 55 56 57 58 59 60 61 62 63 63
33 34 34 37 35 36 35 35 35 36 33 30 34 35 36 39 41 42 45 48 47 50 50 51 50 50 49 51 52 53 55 55 57 57 58 59 61 62
32 33 34 34 33 33 33 33 33 35 33 30 29 34 35 37 38 41 42 42 47 50 50 50 48 50 50 50 52 50 51 52 52 53 53 55 56 58
32 34 34 34 32 31 32 30 31 28 29 28 29 30 32 35 36 35 35 38 39 46 47 53 49 48 49 50 50 50 50 51 50 50 50 50 51 53
32 35 35 35 36 34 31 27 27 26 26 26 26 27 28 29 29 33 32 34 35 38 41 52 53 52 52 49 52 51 50 50 50 50 49 48 49 50
30 31 32 34 33 33 32 31 30 25 24 25 25 24 26 27 29 30 30 29 28 38 42 43 56 54 55 53 50 48 48 49 49 50 50 50 49 49
28 29 30 32 31 28 29 30 29 30 29 26 24 24 24 26 29 29 30 30 29 34 35 34 47 53 55 54 47 46 46 46 47 47 48 48 47 46
27 27 27 28 28 29 26 24 26 26 27 28 26 26 27 29 30 31 30 30 31 34 36 33 40 51 51 54 46 47 46 46 46 46 46 45 45 45
28 28 28 27 30 31 25 24 24 25 30 32 32 32 31 31 32 30 28 27 27 30 36 39 43 41 43 45 49 45 45 45 45 45 45 45 45 44
26 27 29 28 29 29 26 24 23 23 24 25 25 27 29 29 31 30 29 26 27 28 34 34 36 40 39 35 38 45 45 43 43 44 44 44 43 49
24 24 25 28 28 30 30 26 25 27 24 24 24 25 26 26 27 29 30 29 27 28 34 32 34 37 40 37 35 36 43 39 42 42 42 42 42 47
22 24 24 28 29 29 28 28 28 26 24 22 22 22 23 23 25 27 29 30 32 31 33 33 32 34 39 37 37 35 35 36 38 39 39 41 41 41
25 25 27 28 27 26 27 27 25 23 21 20 20 21 23 24 26 27 29 31 32 33 33 33 32 33 35 37 36 34 35 34 35 37 37 38 38 40
22 23 24 25 23 23 23 24 23 23 21 20 20 22 24 23 23 25 26 28 28 29 33 32 32 33 34 38 38 35 35 34 35 36 37 36 36 39
22 21 20 19 18 19 20 21 21 21 19 20 20 21 21 22 22 24 25 26 25 26 28 32 33 32 33 35 37 37 35 35 35 35 35 35 35 36
20 17 16 16 16 17 16 17 18 18 19 20 19 19 19 19 20 22 24 24 24 26 27 31 30 32 33 34 35 36 35 34 34 34 35 34 33 34
16 15 15 15 15 16 16 16 15 17 19 18 18 18 18 19 19 20 22 23 23 25 27 29 29 28 27 28 32 33 34 33 33 33 33 33 33 32
16 15 14 15 15 15 15 15 15 16 16 17 16 16 16 17 17 19 21 21 22 24 26 28 28 28 27 26 28 31 33 33 33 32 30 30 31 31
15 14 15 14 15 15 14 14 14 14 15 15 14 15 15 16 16 18 20 21 22 23 24 25 28 30 32 32 31 31 31 33 33 32 32 31 30 30
14 14 14 15 15 14 14 14 14 14 14 13 12 13 14 15 15 17 19 19 21 23 24 27 30 31 30 29 28 31 30 30 32 32 32 32 31 29
13 14 13 14 14 14 13 13 13 13 12 12 12 12 13 12 15 17 19 20 21 22 23 24 28 30 29 28 28 29 30 30 30 29 29 31 32 31
MSLP
1021.15 1020.88 1020.52 1019.96 1019.33 1018.74 1018.16 1017.45 1016.56 1013.78 1011.60 1011.30 1010.77 1010.25 1009.42 1008.66 1008.03 1007.34 1006.22 1004.73 1003.46 1002.63 1001.95 1001.54 1001.71 1000.91 1001.57 1002.44 1003.41 1004.50 1005.44 1006.29 1007.43 1008.51 1009.38 1010.24 1011.18 1012.03
1021.30 1020.87 1020.30 1019.67 1019.01 1018.41 1017.76 1016.97 1016.37 1015.22 1012.05 1012.04 1010.94 1010.25 1009.57 1008.35 1007.58 1006.98 1006.15 1005.18 1003.87 1002.57 1001.29 1001.44 1001.17 999.96 999.54 1000.60 1001.82 1003.12 1004.17 1004.84 1006.20 1007.13 1008.08 1009.06 1009.94 1010.79
1021.32 1020.69 1020.10 1019.49 1018.81 1018.28 1017.52 1016.73 1015.88 1015.14 1013.12 1011.51 1011.32 1010.46 1009.34 1008.38 1007.12 1006.43 1005.57 1004.73 1003.87 1002.78 1001.44 1000.66 999.85 1000.03 998.61 999.22 1000.66 1001.75 1002.77 1003.31 1004.61 1005.90 1006.60 1007.69 1008.74 1009.57
1021.15 1020.42 1019.75 1019.10 1018.56 1017.98 1017.35 1016.56 1015.82 1015.05 1013.92 1011.69 1011.21 1010.32 1009.55 1008.38 1006.99 1005.65 1004.45 1003.41 1002.52 1001.19 1000.50 999.65 998.96 998.90 998.64 997.53 999.62 1000.67 1001.25 1002.21 1003.01 1004.02 1004.69 1006.03 1007.33 1008.31
1020.93 1020.15 1019.44 1018.87 1018.29 1017.83 1017.25 1016.53 1015.91 1015.10 1014.22 1012.81 1011.03 1010.42 1009.26 1008.06 1006.51 1005.27 1004.09 1002.93 1001.66 999.91 998.45 997.93 997.14 997.02 997.57 997.97 998.47 999.32 1000.20 1000.86 1001.97 1002.95 1003.61 1004.40 1005.81 1006.98
1020.70 1019.81 1019.14 1018.61 1018.10 1017.68 1017.13 1016.71 1016.01 1015.35 1014.35 1012.94 1011.27 1010.16 1009.06 1007.76 1006.88 1005.46 1003.38 1002.96 1001.27 999.75 998.13 995.76 995.50 995.89 995.84 996.28 997.03 997.92 998.68 999.72 1000.52 1001.50 1002.18 1003.36 1004.26 1005.46
1020.33 1019.47 1018.93 1018.31 1017.75 1017.50 1017.13 1016.77 1016.12 1015.16 1014.06 1012.69 1011.17 1010.06 1008.93 1007.67 1006.86 1005.59 1004.29 1002.69 1000.88 999.94 997.57 995.05 994.25 994.57 994.73 995.25 995.61 996.23 997.23 998.22 999.28 1000.10 1000.90 1001.73 1003.00 1003.89
1020.15 1019.50 1018.88 1018.10 1017.63 1017.25 1017.12 1016.70 1016.09 1014.95 1013.80 1012.68 1011.37 1010.28 1008.93 1008.22 1007.04 1005.65 1004.41 1002.83 1000.01 999.00 997.29 995.40 993.21 993.24 993.23 993.68 994.29 995.46 996.29 997.07 997.92 998.63 999.22 1000.08 1001.34 1002.49
1020.29 1019.60 1018.82 1018.08 1017.54 1017.21 1016.63 1016.08 1015.39 1014.55 1013.72 1012.67 1011.25 1010.29 1008.95 1007.79 1006.66 1005.00 1003.91 1002.80 1000.99 999.40 999.05 996.23 994.44 991.82 991.88 992.44 993.14 993.93 994.99 995.96 996.77 997.70 998.41 998.94 999.80 1000.72
1020.39 1019.67 1018.90 1018.07 1017.55 1016.83 1016.14 1015.46 1014.54 1013.68 1012.87 1012.03 1011.28 1009.81 1008.68 1007.24 1005.81 1004.65 1003.50 1001.80 1000.18 998.84 998.41 995.91 993.68 991.87 990.99 991.10 991.97 992.53 993.55 994.60 995.53 996.39 997.33 998.16 998.45 999.27
1020.34 1019.60 1018.76 1018.07 1017.42 1016.68 1015.85 1014.87 1013.72 1012.86 1012.06 1011.08 1010.09 1008.94 1007.85 1006.57 1005.34 1004.01 1002.67 1001.48 999.32 997.33 996.03 994.16 992.18 991.80 990.91 990.48 990.95 991.70 992.73 993.53 994.31 995.20 996.07 996.72 997.51 998.39
1020.21 1019.42 1018.68 1018.09 1017.22 1016.28 1015.30 1014.45 1013.20 1012.44 1011.37 1010.12 1009.14 1008.00 1007.09 1006.00 1004.83 1003.77 1002.41 1001.12 999.71 997.46 994.58 994.17 991.37 991.07 991.37 990.53 990.75 991.27 992.47 993.07 993.56 994.31 995.09 995.90 996.73 997.73
1020.24 1019.31 1018.63 1017.90 1016.84 1015.78 1015.00 1014.32 1013.43 1012.23 1011.28 1010.27 1009.10 1007.77 1006.64 1005.36 1004.19 1003.05 1001.78 1000.47 999.24 998.01 995.91 995.53 992.48 990.60 990.45 990.57 990.75 991.35 991.73 992.53 993.17 993.92 994.44 995.26 996.03 996.86
1020.34 1019.47 1018.66 1017.54 1016.52 1015.70 1014.97 1014.17 1013.26 1012.39 1011.50 1010.38 1009.17 1007.84 1006.49 1005.16 1003.84 1002.45 1000.79 999.51 998.50 997.23 995.62 994.91 992.71 990.87 991.13 989.52 990.49 991.41 991.92 992.18 992.41 993.34 994.18 995.05 995.80 996.48
1020.28 1019.43 1018.35 1017.37 1016.70 1015.94 1015.12 1014.24 1013.43 1012.60 1011.78 1010.58 1009.42 1008.22 1006.85 1005.37 1003.74 1002.03 1000.27 999.09 997.60 996.17 994.96 993.86 991.72 990.54 990.19 987.52 989.52 990.56 991.49 992.45 992.41 993.10 994.13 994.82 995.59 996.26
1019.97 1019.12 1018.32 1017.65 1017.03 1016.24 1015.32 1014.54 1013.76 1013.00 1012.21 1011.05 1009.63 1008.40 1007.13 1005.51 1003.69 1002.24 1000.59 999.11 997.54 995.87 994.42 992.35 991.71 991.45 990.12 987.53 988.40 989.77 990.71 992.03 992.69 993.44 994.12 994.96 995.54 996.03
1019.71 1019.06 1018.45 1017.84 1017.12 1016.32 1015.62 1014.94 1014.09 1013.22 1012.39 1011.52 1010.11 1008.60 1007.63 1006.53 1005.31 1003.81 1002.14 1000.39 998.56 996.10 993.90 992.65 992.54 992.09 990.68 988.23 988.46 989.91 990.91 992.15 993.04 993.71 994.31 995.52 996.20 996.41
1019.99 1019.49 1018.93 1018.40 1017.70 1016.81 1016.05 1015.26 1014.47 1013.53 1012.70 1011.74 1010.73 1009.30 1007.77 1006.34 1004.74 1003.08 1001.77 999.93 997.53 996.03 996.17 995.72 993.71 992.04 990.64 990.42 990.14 990.55 991.57 992.40 993.14 993.87 994.52 995.36 996.56 997.05
1020.60 1020.05 1019.53 1018.91 1018.17 1017.39 1016.65 1015.89 1014.91 1013.96 1013.02 1012.06 1011.24 1010.13 1008.35 1006.70 1005.03 1003.20 1001.42 1000.42 999.40 998.57 997.55 995.82 994.89 993.51 992.45 991.51 991.69 992.14 991.91 992.90 993.53 995.14 995.15 995.31 996.50 997.31
1020.97 1020.44 1019.88 1019.29 1018.57 1017.84 1017.10 1016.35 1015.42 1014.30 1013.23 1012.24 1011.47 1010.65 1009.40 1007.69 1005.86 1004.22 1002.73 1001.19 999.81 998.96 998.30 997.19 996.15 995.21 994.82 993.74 993.60 993.98 993.32 993.90 994.15 995.49 996.30 996.86 997.25 997.53
1021.17 1020.72 1020.18 1019.57 1018.86 1018.16 1017.50 1016.71 1015.85 1014.80 1013.73 1012.71 1011.83 1010.88 1009.76 1008.41 1006.81 1005.33 1003.58 1002.63 1001.46 999.97 998.59 997.61 996.67 995.68 994.71 993.90 994.14 994.96 995.14 995.28 994.78 996.07 996.35 996.78 997.59 997.59
1021.41 1021.00 1020.42 1019.76 1019.11 1018.37 1017.74 1016.94 1015.98 1015.09 1014.17 1013.40 1012.38 1011.41 1010.47 1009.34 1007.79 1006.21 1004.89 1003.66 1002.16 1000.94 1000.02 998.96 997.39 996.27 995.74 996.01 996.09 995.79 996.03 996.41 996.58 996.77 997.00 996.77 997.12 997.64
1021.57 1021.17 1020.65 1019.96 1019.32 1018.61 1018.01 1017.20 1016.20 1015.54 1014.86 1013.96 1012.90 1011.76 1010.71 1009.63 1008.36 1006.86 1005.43 1004.11 1003.04 1001.94 1000.98 999.84 998.65 997.73 997.15 996.82 996.63 996.37 996.57 996.97 997.23 997.57 997.66 997.65 997.51 997.78
Wind_Speed
10 11 11 9 9 9 9 9 10 18 17 14 16 15 13 14 16 18 21 29 33 30 29 21 33 31 36 37 37 36 35 34 33 32 31 31 31 30
9 12 12 10 11 9 9 9 9 13 20 13 13 17 16 16 19 19 19 30 30 30 29 27 27 31 39 35 35 34 33 32 32 33 32 31 31 31
12 12 13 13 9 10 10 10 10 11 17 14 14 16 20 20 20 18 18 18 16 29 31 25 23 28 31 31 32 33 34 35 34 34 33 32 32 32
14 14 13 10 13 11 10 13 12 12 14 23 17 16 19 20 20 22 17 15 18 26 29 28 25 30 25 26 29 33 35 35 36 37 35 33 33 33
14 14 12 12 12 11 12 11 10 11 13 16 17 14 15 15 18 18 17 18 17 28 31 29 25 31 30 28 31 29 31 32 32 32 31 32 32 32
15 15 11 12 13 11 11 12 12 13 15 15 15 15 14 14 14 15 16 13 17 17 24 22 18 27 28 29 30 31 31 32 32 32 31 31 31 31
14 12 11 17 20 15 10 12 15 13 13 15 15 14 14 13 15 13 15 16 19 16 15 16 8 12 16 26 27 33 33 33 34 35 33 32 32 32
13 13 13 18 13 17 19 25 22 16 16 13 14 15 15 15 14 13 14 14 17 8 13 18 8 12 13 13 24 25 27 31 33 35 36 37 37 35
13 14 14 11 13 9 17 23 21 24 19 16 17 17 20 18 18 18 14 15 18 16 15 19 15 13 12 11 20 25 26 28 28 28 31 35 35 33
13 14 14 15 10 18 17 16 15 13 12 11 15 17 17 18 17 14 16 17 15 14 12 15 13 14 11 11 22 26 27 27 28 28 31 29 29 31
15 14 16 13 23 28 17 16 16 13 15 25 27 28 28 29 23 14 10 12 14 14 11 14 9 5 4 6 10 23 24 26 26 28 27 27 29 28
14 15 21 21 27 29 17 15 14 15 17 16 15 17 18 16 22 13 11 11 11 11 2 5 2 5 3 2 2 9 11 21 25 24 24 26 24 14
12 12 11 28 30 25 26 12 16 20 15 13 13 12 13 12 11 12 13 11 10 10 15 6 6 3 4 4 2 2 8 5 7 8 14 16 18 17
13 11 14 28 25 26 19 27 27 17 11 11 12 12 12 13 14 14 16 14 11 12 13 10 7 1 9 4 4 1 3 3 4 6 6 8 14 16
11 20 27 24 24 16 24 25 17 11 11 11 12 12 12 14 16 14 14 14 13 9 10 10 8 8 10 5 6 5 6 1 3 5 5 6 6 7
12 12 12 14 13 13 12 13 11 11 12 12 12 12 11 12 13 13 14 12 10 11 13 12 12 9 7 6 8 6 6 5 4 4 6 4 4 4
13 9 9 9 11 11 10 12 12 12 12 12 12 12 12 11 10 11 10 10 9 10 12 13 12 8 7 6 12 8 9 7 5 6 6 7 4 4
9 9 10 10 11 11 12 12 11 14 12 12 11 12 13 13 13 12 10 11 12 13 10 9 11 8 3 9 20 10 9 7 4 5 4 6 4 4
7 8 9 10 11 11 11 12 12 12 14 12 12 13 14 15 16 14 14 12 11 9 9 9 11 10 9 5 4 21 6 5 5 4 5 3 4 4
8 9 9 10 10 10 11 12 12 12 13 12 12 12 13 14 14 14 14 15 13 11 9 9 9 9 6 5 4 4 18 4 4 4 3 4 6 11
8 8 9 9 10 9 10 11 12 11 13 12 13 13 13 13 14 14 15 18 15 11 12 11 10 15 6 3 3 3 5 15 11 3 3 4 2 3
8 9 9 9 9 9 10 11 11 11 12 12 13 13 12 13 13 14 12 13 12 11 10 11 12 8 4 4 4 3 3 4 11 16 14 8 2 3
7 8 9 9 9 9 10 11 11 11 11 12 13 13 14 13 13 12 12 12 12 11 12 11 10 8 3 1 3 3 5 3 2 4 6 12 11 11
Wind_Direction
338 320 317 305 304 303 297 291 295 305 303 311 308 308 309 306 303 307 306 301 303 302 295 279 267 218 203 201 199 199 198 198 199 201 203 202 204 208
323 317 312 311 312 306 300 299 291 289 294 305 308 310 307 304 303 300 301 294 295 294 289 267 257 239 208 197 197 197 197 195 200 200 201 202 203 206
320 318 313 314 308 310 303 299 296 297 295 303 305 307 306 304 305 300 295 292 285 279 278 262 242 231 213 197 195 195 198 194 198 202 199 200 204 205
322 313 312 316 311 308 309 308 305 304 302 303 307 310 303 304 299 301 298 295 292 284 273 261 235 227 226 200 201 203 201 202 201 199 194 197 203 205
315 311 309 317 315 318 311 311 318 310 308 303 304 301 301 303 304 301 301 300 292 290 272 254 238 228 218 212 208 201 202 201 200 199 196 195 199 203
313 307 310 318 315 317 323 322 321 316 306 298 299 302 301 307 306 307 304 301 302 305 301 259 216 221 216 216 209 203 202 203 199 197 194 196 195 199
315 322 325 318 323 326 326 328 319 308 305 302 299 306 306 309 307 308 301 303 300 293 283 270 219 218 216 215 212 208 203 199 202 199 194 192 196 196
325 329 327 323 323 330 331 325 317 313 307 307 309 301 304 307 303 301 301 302 304 290 324 315 249 230 214 205 207 205 207 207 208 204 201 199 198 199
329 328 324 325 328 334 324 321 310 304 306 301 301 304 302 300 298 299 296 288 287 292 290 285 293 235 208 204 196 197 197 203 203 205 208 201 197 197
332 324 320 322 329 330 327 315 307 303 298 305 301 297 296 296 291 293 291 285 284 282 257 262 265 247 194 194 195 196 193 197 201 201 203 203 200 198
327 322 322 328 330 327 321 313 308 307 312 313 313 312 309 308 305 299 297 299 300 300 291 240 232 205 258 189 190 189 195 200 199 202 202 201 199 195
325 325 323 335 326 322 325 317 314 323 322 318 318 316 313 309 308 301 298 293 300 309 57 296 265 156 227 290 162 177 195 200 194 195 196 196 188 200
327 324 329 325 321 332 334 328 329 331 322 321 320 317 314 319 314 306 299 295 295 274 284 319 280 66 224 158 107 98 171 159 179 187 189 187 180 188
323 323 319 321 338 340 339 337 340 332 329 325 324 326 322 325 317 312 308 303 288 277 282 281 266 107 273 162 142 114 61 98 122 148 154 161 170 180
320 326 325 337 342 337 337 343 344 337 334 329 327 324 322 316 312 314 313 309 308 298 298 286 322 323 288 137 149 150 128 76 101 126 125 144 153 167
327 319 328 339 337 332 338 342 340 341 334 330 324 322 325 325 326 326 326 329 321 328 326 332 347 316 297 87 122 112 104 138 112 102 109 103 87 117
333 330 339 343 340 340 343 343 340 339 339 335 332 329 332 331 323 317 321 315 323 337 343 347 336 306 351 9 95 90 101 88 88 112 100 105 75 77
345 341 342 343 341 340 341 342 340 339 339 336 337 333 331 332 329 328 331 336 352 359 348 337 345 337 289 35 38 91 78 99 79 54 94 101 92 72
344 342 341 340 338 341 340 341 337 337 336 336 342 339 333 333 334 335 339 347 349 346 338 346 351 358 8 40 22 23 82 67 84 59 43 68 118 77
345 341 338 338 336 341 340 338 336 334 337 338 344 341 338 334 333 338 342 342 343 348 344 345 346 358 347 7 12 25 25 54 67 70 95 66 75 103
341 339 335 337 334 337 339 334 332 336 335 343 340 339 339 338 333 335 337 341 340 340 343 347 339 334 332 340 29 47 43 43 60 83 115 94 89 84
339 335 335 333 333 336 339 335 330 340 342 343 337 336 337 332 328 328 334 334 339 339 341 332 332 335 358 11 358 26 73 50 58 65 55 62 126 122
337 336 331 332 333 337 338 334 329 342 345 337 336 334 332 329 329 324 332 333 334 339 339 333 337 343 321 327 338 2 103 98 66 65 48 35 59 79